Aberdeen, United Kingdom

7:50 AM GMT on November 18, 2019 (GMT +0000)
Dyce

Weather History for EGPD - October, 2019

Change the Weather History Date:

Wednesday, October 23, 2019

  Actual Average Record
Temperature  
Mean Temperature 50 °F -  
Max Temperature 56 °F 49 °F 60 °F (1996)
Min Temperature 44 °F 37 °F 35 °F (2003)
Degree Days  
Heating Degree Days 15    
Moisture  
Dew Point 45 °F    
Average Humidity 80    
Maximum Humidity 93    
Minimum Humidity 60    
Precipitation  
Precipitation 0.00 in 0.10 in - ()
Sea Level Pressure  
Sea Level Pressure 29.69 in    
Wind  
Wind Speed 10 mph ()    
Max Wind Speed 21 mph    
Max Gust Speed 31 mph    
Visibility 6.6 miles    
Events Rain    
Averages and records for this station are not official NWS values.
T = Trace of Precipitation, MM = Missing Value Source: Averaged Metar Reports

Daily Weather History Graph

Daily Weather History Graph

Search for Another Location

Airport or City:

Astronomy

Oct. 23, 2019 Rise Set
Actual Time 7:59 AM BST 5:46 PM BST
Civil Twilight 7:19 AM BST 6:26 PM BST
Nautical Twilight 6:34 AM BST 7:10 PM BST
Astronomical Twilight 5:50 AM BST 7:55 PM BST
Moon 12:27 AM BST (10/23) 4:49 PM BST (10/23)
Length of Visible Light 11h 06m
Length of Day
9h 47m
Waning Crescent, 29% of the Moon is Illuminated
Oct 23
Waning Crescent
Oct 28
New
Nov 4
First Quarter
Nov 12
Full
Nov 19
Last Quarter

Hourly Weather History & Observations

Time (BST) Temp. Windchill Dew Point Humidity Pressure Visibility Wind Dir Wind Speed Gust Speed Precip Events Conditions
12:00 AM 49 °F - 44 °F 76% 29.86 in 31 mi South 10.4 mph - -   Scattered Clouds
12:20 AM 48.2 °F - 42.8 °F 82% 29.86 in 6.2 mi SSE 9.2 mph - N/A   Unknown
12:50 AM 46.4 °F 42.9 °F 42.8 °F 87% 29.83 in 6.2 mi SSE 6.9 mph - N/A   Unknown
1:00 AM 46 °F - 43 °F 84% 29.85 in 31 mi SSE 6.9 mph - -  
1:20 AM 46.4 °F 44.3 °F 42.8 °F 87% 29.83 in 6.2 mi SSE 4.6 mph - N/A   Unknown
1:50 AM 48.2 °F - 42.8 °F 82% 29.83 in 6.2 mi SSE 9.2 mph - N/A   Unknown
2:20 AM 48.2 °F - 44.6 °F 87% 29.83 in 6.2 mi SSE 10.4 mph - N/A   Unknown
2:50 AM 48.2 °F - 44.6 °F 87% 29.83 in 6.2 mi SE 6.9 mph - N/A   Unknown
3:00 AM 47 °F - 44 °F 85% 29.83 in 31 mi SE 6.9 mph - -   Mostly Cloudy
3:20 AM 48.2 °F - 44.6 °F 87% 29.83 in 6.2 mi SSE 10.4 mph - N/A   Unknown
3:50 AM 46.4 °F 42.4 °F 44.6 °F 93% 29.80 in 6.2 mi South 8.1 mph - N/A   Unknown
4:00 AM 48 °F - 45 °F 84% 29.81 in 31 mi South 8.1 mph - -   Overcast
4:20 AM 48.2 °F - 44.6 °F 87% 29.80 in 6.2 mi East 4.6 mph - N/A   Unknown
4:50 AM 48.2 °F - 44.6 °F 87% 29.77 in 6.2 mi SSE 6.9 mph - N/A   Unknown
5:00 AM 47 °F - 44 °F 87% 29.79 in 31 mi SSE 6.9 mph - -   Overcast
5:20 AM 48.2 °F - 44.6 °F 87% 29.77 in 6.2 mi South 8.1 mph - N/A   Unknown
5:50 AM 48.2 °F - 44.6 °F 87% 29.77 in 6.2 mi South 10.4 mph - N/A   Unknown
6:00 AM 48 °F - 45 °F 85% 29.78 in 31 mi South 10.4 mph - -   Overcast
6:20 AM 48.2 °F - 44.6 °F 87% 29.77 in 6.2 mi SSE 11.5 mph - N/A   Unknown
6:50 AM 48.2 °F - 44.6 °F 87% 29.77 in 6.2 mi SSE 9.2 mph - N/A   Unknown
7:00 AM 48 °F - 45 °F 85% 29.78 in 28 mi South 9.2 mph - -  
7:20 AM 48.2 °F - 44.6 °F 87% 29.77 in 6.2 mi South 9.2 mph - N/A   Unknown
7:50 AM 48.2 °F - 44.6 °F 87% 29.74 in 6.2 mi SSE 8.1 mph - N/A   Unknown
8:00 AM 48 °F - 45 °F 84% 29.76 in 31 mi SSE 6.9 mph - -   Overcast
8:20 AM 50.0 °F - 44.6 °F 82% 29.74 in 6.2 mi South 11.5 mph - N/A Rain Light Rain
8:50 AM 50.0 °F - 44.6 °F 82% 29.74 in 6.2 mi South 12.7 mph - N/A Rain Light Rain
9:00 AM 50 °F - 45 °F 78% 29.75 in 28 mi SSW 12.7 mph - - Rain Light Rain Showers
9:20 AM 50.0 °F - 44.6 °F 82% 29.71 in 6.2 mi SSW 19.6 mph - N/A   Unknown
9:50 AM 50.0 °F - 46.4 °F 87% 29.74 in 6.2 mi SSW 18.4 mph - N/A   Unknown
10:00 AM 50 °F - 45 °F 78% 29.74 in 25 mi SSW 20.7 mph - - Rain Rain
10:20 AM 50.0 °F - 46.4 °F 87% 29.74 in 6.2 mi SSW 16.1 mph - N/A   Scattered Clouds
10:50 AM 51.8 °F - 46.4 °F 82% 29.71 in 6.2 mi SW 9.2 mph - N/A   Mostly Cloudy
11:00 AM 51 °F - 45 °F 74% 29.73 in 22 mi SW 9.2 mph - -   Scattered Clouds
11:20 AM 51.8 °F - 46.4 °F 82% 29.71 in 6.2 mi SSW 12.7 mph - N/A   Scattered Clouds
11:50 AM 51.8 °F - 46.4 °F 82% 29.71 in 6.2 mi SSW 11.5 mph - N/A   Mostly Cloudy
12:00 PM 52 °F - 46 °F 73% 29.71 in 31 mi SSW 12.7 mph - -   Scattered Clouds
12:20 PM 53.6 °F - 46.4 °F 77% 29.71 in 6.2 mi SSW 15.0 mph - N/A   Partly Cloudy
12:50 PM 53.6 °F - 46.4 °F 77% 29.68 in 6.2 mi SSW 11.5 mph - N/A   Partly Cloudy
1:00 PM 53 °F - 46 °F 70% 29.69 in 28 mi SSW 10.4 mph - -   Partly Cloudy
1:20 PM 53.6 °F - 46.4 °F 77% 29.68 in 6.2 mi South 4.6 mph - N/A   Partly Cloudy
1:50 PM 55.4 °F - 46.4 °F 72% 29.65 in 6.2 mi SSW 10.4 mph 23.0 mph N/A   Partly Cloudy
2:00 PM 55 °F - 45 °F 60% 29.66 in 25 mi SSW 11.5 mph - -   Scattered Clouds
2:20 PM 55.4 °F - 44.6 °F 67% 29.65 in 6.2 mi South 6.9 mph - N/A   Partly Cloudy
2:50 PM 53.6 °F - 46.4 °F 77% 29.62 in 6.2 mi South 10.4 mph - N/A   Partly Cloudy
3:20 PM 53.6 °F - 46.4 °F 77% 29.59 in 6.2 mi South 19.6 mph - N/A   Partly Cloudy
3:50 PM 53.6 °F - 46.4 °F 77% 29.59 in 6.2 mi SSW 17.3 mph - N/A   Unknown
4:00 PM 54 °F - 46 °F 65% 29.60 in 28 mi SSW 19.6 mph - -   Mostly Cloudy
4:20 PM 53.6 °F - 46.4 °F 77% 29.59 in 6.2 mi South 19.6 mph - N/A   Scattered Clouds
4:50 PM 53.6 °F - 46.4 °F 77% 29.59 in 6.2 mi South 15.0 mph - N/A   Mostly Cloudy
5:00 PM 54 °F - 46 °F 66% 29.60 in 31 mi South 15.0 mph - -   Partly Cloudy
5:20 PM 53.6 °F - 46.4 °F 77% 29.59 in 6.2 mi South 18.4 mph - N/A   Overcast
5:50 PM 53.6 °F - 46.4 °F 77% 29.59 in 6.2 mi South 15.0 mph - N/A   Mostly Cloudy
6:20 PM 53.6 °F - 46.4 °F 77% 29.59 in 6.2 mi South 17.3 mph - N/A   Scattered Clouds
6:50 PM 51.8 °F - 46.4 °F 82% 29.56 in 6.2 mi South 15.0 mph - N/A   Unknown
7:00 PM 52 °F - 46 °F 73% 29.58 in 17 mi South 15.0 mph - -   Mostly Cloudy
7:20 PM 51.8 °F - 44.6 °F 76% 29.56 in 6.2 mi South 16.1 mph - N/A   Mostly Cloudy
7:50 PM 51.8 °F - 44.6 °F 76% 29.56 in 6.2 mi South 18.4 mph 31.1 mph N/A   Overcast
8:00 PM 52 °F - 45 °F 69% 29.56 in 28 mi South 17.3 mph - -   Mostly Cloudy
8:20 PM 51.8 °F - 44.6 °F 76% 29.53 in 6.2 mi South 19.6 mph - N/A   Mostly Cloudy
8:50 PM 51.8 °F - 44.6 °F 76% 29.53 in 6.2 mi South 19.6 mph - N/A   Mostly Cloudy
9:00 PM 52 °F - 44 °F 68% 29.54 in 22 mi South 20.7 mph - -   Mostly Cloudy
9:20 PM 51.8 °F - 44.6 °F 76% 29.53 in 6.2 mi South 20.7 mph - N/A   Overcast
9:50 PM 51.8 °F - 44.6 °F 76% 29.53 in 6.2 mi South 13.8 mph - N/A   Overcast
10:20 PM 51.8 °F - 46.4 °F 82% 29.53 in 6.2 mi South 11.5 mph - N/A   Overcast
10:50 PM 50.0 °F - 46.4 °F 87% 29.50 in 6.2 mi South 11.5 mph - N/A   Overcast
11:00 PM 51 °F - 46 °F 76% 29.52 in 17 mi South 12.7 mph - -   Mostly Cloudy
11:20 PM 50.0 °F - 46.4 °F 87% 29.50 in 6.2 mi South 13.8 mph - N/A   Overcast
11:50 PM 50.0 °F - 46.4 °F 87% 29.50 in 6.2 mi South 18.4 mph - N/A   Overcast